This is the latest recevied weather packets stored in our database for station/object SV1JSO-13. If no packets are shown the sender has not sent any weather packets the latest 10 day(s).
| Time | Temp. | Humidity | Pressure | Rain* | Wind** | Luminosity | Snow |
|---|---|---|---|---|---|---|---|
| 1788449100 | 31.11° C | 33% | 1005.4 hPa | 0 mm | - | 92 W/m² | - |
| 1788448800 | 31.11° C | 33% | 1005.4 hPa | 0 mm | - | 97 W/m² | - |
| 1788448500 | 31.67° C | 34% | 1005.5 hPa | 0 mm | - | 103 W/m² | - |
| 1788448200 | 31.11° C | 33% | 1005.2 hPa | 0 mm | - | 112 W/m² | - |
| 1788447900 | 31.67° C | 33% | 1005.5 hPa | 0 mm | - | 113 W/m² | - |
| 1788447600 | 31.67° C | 34% | 1005.5 hPa | 0 mm | - | 123 W/m² | - |
| 1788447300 | 31.67° C | 35% | 1005.6 hPa | 0 mm | - | 136 W/m² | - |
| 1788447000 | 31.67° C | 35% | 1005.7 hPa | 0 mm | - | 135 W/m² | - |
| 1788446700 | 31.67° C | 34% | 1005.6 hPa | 0 mm | - | 122 W/m² | - |
| 1788446400 | 31.67° C | 34% | 1005.6 hPa | 0 mm | - | 125 W/m² | - |
| 1788446100 | 32.22° C | 33% | 1005.6 hPa | 0 mm | - | 164 W/m² | - |
| 1788445800 | 32.22° C | 34% | 1005.6 hPa | 0 mm | - | 187 W/m² | - |
| 1788445500 | 32.22° C | 33% | 1005.4 hPa | 0 mm | - | 167 W/m² | - |
| 1788445200 | 32.78° C | 31% | 1005.4 hPa | 0 mm | - | 163 W/m² | - |
| 1788444900 | 32.22° C | 32% | 1005.6 hPa | 0 mm | - | 339 W/m² | - |
| 1788444600 | 32.22° C | 33% | 1005.7 hPa | 0 mm | - | 368 W/m² | - |
| 1788444300 | 32.78° C | 31% | 1005.7 hPa | 0 mm | - | 378 W/m² | - |
| 1788444000 | 32.78° C | 31% | 1005.6 hPa | 0 mm | - | 388 W/m² | - |
| 1788443701 | 32.78° C | 32% | 1005.5 hPa | 0 mm | - | 395 W/m² | - |
| 1788443401 | 32.78° C | 31% | 1005.3 hPa | 0 mm | - | 414 W/m² | - |
| 1788443100 | 32.78° C | 31% | 1005.3 hPa | 0 mm | - | 422 W/m² | - |
| 1788442800 | 32.78° C | 31% | 1005.2 hPa | 0 mm | - | 438 W/m² | - |
| 1788442500 | 32.78° C | 30% | 1005.2 hPa | 0 mm | - | 451 W/m² | - |
| 1788442201 | 33.33° C | 31% | 1005.3 hPa | 0 mm | - | 463 W/m² | - |
| 1788441901 | 32.78° C | 30% | 1005.3 hPa | 0 mm | - | 482 W/m² | - |
* Rain latest hour (hover to see other rain measurements)
** Current wind speed in m/s (hover to see current wind gust speed)